Regional Weather Roundup
Issued by NWS San Diego, CA

Home | Current Version | Previous Version | Text Only | Print | Product List | Glossary On
Versions: 1 2 3 4 5 6 7 8 9 10 11 12 13 14 15 16 17 18 19 20 21 22 23 24 25 26 27 28 29 30 31 32 33 34 35 36 37 38 39 40 41 42 43 44 45 46 47 48 49 50
000
ASUS46 KSGX 020410
RWRSGX

SAN DIEGO HOURLY WEATHER ROUNDUP
NATIONAL WEATHER SERVICE SAN DIEGO CA
900 PM PDT WED OCT 01 2014

NOTE: "FAIR" INDICATES FEW OR NO CLOUDS BELOW 12,000 FEET WITH NO
SIGNIFICANT WEATHER AND/OR OBSTRUCTIONS TO VISIBILITY.

CAZ042-043-060-061-PZZ750-775-020500-

GREATER SAN DIEGO AREA

CITY           SKY/WX    TMP DP  RH WIND       PRES   REMARKS
LINDBERGH FLD  PTCLDY    70  62  76 N3        29.86R
POINT LOMA       N/A     66  62  87 NW6         N/A
NATIONAL CITY    N/A     69  64  82 CALM      29.86R
CHULA VISTA      N/A     68  64  89 CALM      29.79R
IMPERIAL BEACH PTCLDY    64  60  87 CALM      29.86R
BROWN FIELD    CLEAR     66  62  87 CALM      29.86R
MIRAMAR MCAS   PTCLDY    67  61  81 NW5       29.86R
MONTGOMERY FLD CLEAR     68  62  81 NW3       29.86R

$$

NORTH SAN DIEGO COUNTY

CITY           SKY/WX    TMP DP  RH WIND       PRES   REMARKS
CAMP PENDLETON CLEAR     67  61  81 CALM      29.85R
OCEANSIDE AP   CLEAR     65  60  84 CALM      29.84R
OCEANSIDE HBR    N/A     69  65  86 CALM      29.87R
VISTA            N/A     67  62  84 CALM      29.84R
CARLSBAD       CLEAR     68  63  84 CALM      29.85R
DEL MAR          N/A     66  63  89 CALM      29.88R
LA JOLLA SCRIP   N/A     66  64  91 CALM      29.83R
FALLBROOK        N/A     66  66  99 CALM      29.87R
ESCONDIDO        N/A     69  63  82 W3        29.87R
SAN MARCOS       N/A     67  62  84 CALM      29.84R
POWAY            N/A     67  61  83 CALM      29.86R

$$

EAST SAN DIEGO COUNTY

CITY           SKY/WX    TMP DP  RH WIND       PRES   REMARKS
RAMONA           N/A     63  58  83 CALM      29.89R
SANTEE LAKES     N/A     67  62  84 CALM      29.86R
LA MESA          N/A     68  64  85 CALM      29.80R
JAMUL            N/A     65  60  83 CALM      29.84R
MT. LAGUNA OBS   N/A     60  33  35 N15       29.67R
CAMPO            N/A     66  37  34 E3        29.90R

$$

ORANGE COUNTY AND THE LOS ANGELES BASIN

CITY           SKY/WX    TMP DP  RH WIND       PRES   REMARKS
JOHN WAYNE AP  CLEAR     72  62  71 SW3       29.85R
LAGUNA BEACH     N/A    N/A N/A N/A N1        29.81R
LAKE FOREST FR   N/A     66  58  73 CALM      29.76R
SANTA ANA        N/A     69  63  80 CALM      29.80R
HUNTINGTON BCH   N/A     68  65  91 CALM      29.87R
LOS ALAMITOS   CLEAR     69  62  77 S3        29.85R
FULLERTON      CLEAR     72  62  71 S3        29.84R
LONG BEACH     CLEAR     70  63  78 W6        29.85R
L.A. AP        CLEAR     67  63  87 W6        29.85R
L.A. DOWNTOWN  CLEAR     68  62  81 CALM      29.85R

$$

THE INLAND EMPIRE

CITY           SKY/WX    TMP DP  RH WIND       PRES   REMARKS
CORONA         CLEAR     67  58  72 CALM      29.86R
CHINO          CLEAR     70  59  68 SW3       29.87R
ONTARIO        CLEAR     73  59  61 SW5       29.86R
RIVERSIDE AP   CLEAR     73  58  59 CALM      29.87R
RIV CYN CREST    N/A     74  66  75 W2        29.85R
MORENO VALLEY    N/A     71  59  64 CALM      29.09R
MARCH ARB      CLEAR     70  57  63 W3        29.90R
HORSETHIEF CYN   N/A     69  50  50 SW3       29.88R
PERRIS           N/A     71  61  69 SE2       29.87R
MENIFEE          N/A     72  63  73 S2        29.94R
HEMET EAST       N/A     70  52  52 CALM      29.85R
FRENCH VALLEY  FAIR      70  59  68 CALM      29.90R
TEMECULA         N/A     69  62  77 CALM      29.85R

$$

SAN BERNARDINO AND RIVERSIDE COUNTY MOUNTAINS

CITY           SKY/WX    TMP DP  RH WIND       PRES   REMARKS
BIG BEAR AP    CLEAR     45  27  49 CALM      30.20R
PINE COVE        N/A     58  32  38 CALM      29.80R

$$

SOUTHERN DESERT INCLUDING THE COACHELLA VALLEY

CITY           SKY/WX    TMP DP  RH WIND       PRES   REMARKS
PALM SPRINGS   CLEAR     89  35  14 NW7       29.84R
THOUSAND PALMS   N/A     85  38  19 N5        29.77R
PALM DESERT      N/A     83  46  26 CALM      31.34S
THERMAL        CLEAR     71  51  49 CALM      29.76R
BLYTHE         CLEAR     82  47  29 NW7       29.80R
IMPERIAL AP    CLEAR     78  44  29 CALM      29.77R
EL CENTRO NAS  CLEAR     80  39  23 W5        29.78R
YUMA AZ        CLEAR     86  40  19 NW5       29.78R
MEXICALI       CLEAR     84  39  20 SW5       29.79

$$

UPPER DESERT

CITY           SKY/WX    TMP DP  RH WIND       PRES   REMARKS
VICTORVILLE AP CLEAR     70  28  21 NE7       30.01R
HESPERIA         N/A     67  36  32 CALM      30.01R
APPLE VALLEY     N/A     75  29  18 NE3       30.05R
PALMDALE       CLEAR     70  31  23 E12       29.97R
LANCASTER      CLEAR     69  29  22 NE10      29.96R
EDWARDS AFB    CLEAR     73  23  15 E8        29.95R
DAGGETT        CLEAR     75  22  13 VRB5      29.95R
29 PALMS N     CLEAR     78  33  19 NW5       30.00R
NEEDLES        CLEAR     81  27  14 N12       29.88R

$$

REGIONAL REPORTS

CITY           SKY/WX    TMP DP  RH WIND       PRES   REMARKS
SANTA BARBARA  CLEAR     66  62  87 CALM      29.83R
SANDBERG       CLEAR     69  29  22 CALM      30.09R
MT. WILSON       N/A     59  27  29 MISG        N/A
LAS VEGAS NV   CLEAR     74  21  13 N7        29.97R
PHOENIX AZ     CLEAR     80  51  36 CALM      29.81R
TIJUANA        CLEAR     64  59  82 CALM      29.88R
ENSENADA NW      N/A     67  32  27 NW1       29.83R

$$

OFFSHORE ISLANDS

CITY           SKY/WX    TMP DP  RH WIND       PRES   REMARKS
CATALINA ARPT  CLEAR     69  47  45 N6        29.90R
SAN NICOLAS IS CLEAR    N/A N/A N/A NW5       29.86R

$$

MARINE AND OFFSHORE BUOY REPORTS

STATION/POSITION SKY/WX   TEMP    WIND        PRES    SWELL
                          AIR SEA DIR/SP/G            HT/PER/DIR
                          (F)     (DEG/KT/KT) (MB)    (FT/S/D)
TANNER BANKS               66 69   CALM  /  2 1010.8R   8/320/10
S CLEMENTE BASIN           69 72  320/  2/  2 1010.8R   5/280/10
SAN NICOLAS IS.               67                N/A     5/310/11
SO. S. ROSA ISLA           65 65  240/  6/  8 1010.0R   8/10
W. S. BARBARA CH           68 64  320/ 12/ 14 1008.6R   8/300/11
M. S. BARBARA CH                  220/  4       N/A
S. MONICA BASIN            67 70  220/  4/  6 1010.4R   3/240/11
S PEDRO CHANNEL               71                N/A     2/240/11
DANA POINT                    69                N/A     2/220/11
CMP PENDLETON NS              69                N/A     2/230/14
OCEANSIDE OFFSHR              70                N/A     2/220/14
TORREY PINES OTR              73                N/A     3/260/11
LA JOLLA 1                 69 72   30/  3/  4 1011.0R
MISSION BAY BUOY              72                N/A     2/230/14
SAN DIEGO BAY                 74              1011.3R
POINT LOMA SOUTH              72                N/A     2/220/14

$$



USA.gov is the U.S. government's official web portal to all federal, state and local government web resources and services.